Ketchikan, AK

9:50 AM AKST on November 13, 2018 (GMT -0900)
Ketchikan International

Weather History for PAKT - November, 2017

Change the Weather History Date:

Tuesday, November 28, 2017

  Actual Average Record
Temperature  
Mean Temperature 41 °F -  
Max Temperature 44 °F 43 °F 54 °F (1979)
Min Temperature 39 °F 32 °F 5 °F (2006)
Degree Days  
Heating Degree Days 24    
Moisture  
Dew Point 39 °F    
Average Humidity 88    
Maximum Humidity 100    
Minimum Humidity 80    
Precipitation  
Precipitation 0.18 in - - ()
Sea Level Pressure  
Sea Level Pressure 29.39 in    
Wind  
Wind Speed 9 mph (SSE)    
Max Wind Speed 21 mph    
Max Gust Speed 28 mph    
Visibility 9 miles    
Events Rain    
Averages and records for this station are not official NWS values.
T = Trace of Precipitation, MM = Missing Value Source: NWS Daily Summary

Daily Weather History Graph

Daily Weather History Graph

Search for Another Location

Airport or City:

Astronomy

Nov. 28, 2017 Rise Set
Actual Time 7:45 AM AKST 3:23 PM AKST
Civil Twilight 7:01 AM AKST 4:07 PM AKST
Nautical Twilight 6:15 AM AKST 4:54 PM AKST
Astronomical Twilight 5:31 AM AKST 5:38 PM AKST
Moon 1:45 PM AKST (11/28) 12:41 AM AKST (11/28)
Length of Visible Light 9h 05m
Length of Day
7h 38m
Waxing Gibbous, 72% of the Moon is Illuminated
Nov 28
Waxing Gibbous
Dec 3
Full
Dec 9
Last Quarter
Dec 17
New
Dec 26
First Quarter

Hourly Weather History & Observations

Time (AKST) Temp. Windchill Dew Point Humidity Pressure Visibility Wind Dir Wind Speed Gust Speed Precip Events Conditions
12:15 AM 41.0 °F 35.2 °F 37.0 °F 86% 29.20 in 8.0 mi South 9.2 mph - 0.02 in Rain Light Rain
12:49 AM 42.8 °F 38.6 °F 37.4 °F 81% 29.16 in 8.0 mi Variable 6.9 mph 19.6 mph 0.04 in Rain Light Rain
12:53 AM 41.0 °F 34.3 °F 37.0 °F 86% 29.16 in 7.0 mi SE 11.5 mph 20.7 mph 0.05 in Rain Light Rain
1:14 AM 41.0 °F 36.4 °F 37.0 °F 86% 29.15 in 10.0 mi South 6.9 mph - 0.01 in Rain Light Rain
1:53 AM 42.1 °F 36.6 °F 37.0 °F 82% 29.13 in 10.0 mi SSE 9.2 mph 16.1 mph 0.03 in Rain Light Rain
2:53 AM 41.0 °F 33.1 °F 37.0 °F 86% 29.13 in 10.0 mi SSE 15.0 mph 24.2 mph 0.02 in Rain Light Rain
3:16 AM 42.1 °F 33.1 °F 37.0 °F 82% 29.13 in 10.0 mi SE 20.7 mph 27.6 mph 0.01 in Rain Light Rain
3:53 AM 42.1 °F 34.2 °F 37.9 °F 85% 29.13 in 10.0 mi SE 16.1 mph - 0.01 in Rain Light Rain
4:07 AM 42.8 °F 36.2 °F 39.2 °F 87% 29.14 in 8.0 mi SSE 12.7 mph 19.6 mph N/A Rain Light Rain
4:40 AM 42.1 °F 36.6 °F 39.9 °F 92% 29.14 in 9.0 mi South 9.2 mph - 0.01 in Rain Light Rain
4:53 AM 42.1 °F 36.6 °F 39.0 °F 89% 29.15 in 10.0 mi South 9.2 mph - 0.01 in Rain Light Rain
5:53 AM 42.1 °F 37.7 °F 39.0 °F 89% 29.14 in 10.0 mi South 6.9 mph - 0.01 in Rain Light Rain
6:53 AM 43.0 °F 40.3 °F 37.0 °F 80% 29.15 in 10.0 mi Variable 4.6 mph - 0.00 in Rain Light Rain
7:53 AM 41.0 °F 38.0 °F 39.0 °F 93% 29.18 in 10.0 mi North 4.6 mph - 0.00 in Rain Light Rain
8:53 AM 42.1 °F 39.2 °F 37.9 °F 85% 29.22 in 10.0 mi WNW 4.6 mph - 0.01 in Rain Light Rain
9:53 AM 43.0 °F 38.2 °F 39.0 °F 86% 29.27 in 10.0 mi NW 8.1 mph - 0.01 in   Overcast
10:53 AM 42.1 °F 37.1 °F 39.0 °F 89% 29.32 in 10.0 mi NNW 8.1 mph - 0.01 in Rain Light Rain
11:53 AM 42.8 °F 38.6 °F 41.0 °F 93% 29.38 in 10.0 mi NNW 6.9 mph - N/A   Overcast
12:53 PM 42.8 °F 41.1 °F 41.0 °F 93% 29.42 in 4.0 mi North 3.5 mph - N/A Rain Light Rain
1:53 PM 42.8 °F - 42.8 °F 100% 29.48 in 7.0 mi Calm Calm - N/A Rain Light Rain
2:53 PM 42.8 °F 39.3 °F 37.4 °F 81% 29.54 in 8.0 mi WNW 5.8 mph - N/A   Overcast
3:53 PM 42.1 °F 37.7 °F 37.9 °F 85% 29.57 in 10.0 mi North 6.9 mph - N/A   Mostly Cloudy
4:53 PM 39.0 °F - 36.0 °F 89% 29.62 in 10.0 mi Calm Calm - N/A   Scattered Clouds
5:53 PM 39.9 °F 36.7 °F 37.0 °F 89% 29.67 in 10.0 mi SE 4.6 mph - N/A   Overcast
6:53 PM 39.9 °F 35.1 °F 37.0 °F 89% 29.69 in 10.0 mi South 6.9 mph - N/A   Overcast
8:53 PM 41.0 °F 36.4 °F 39.0 °F 93% 29.73 in 10.0 mi South 6.9 mph - 0.00 in Rain Light Rain
9:34 PM 42.1 °F 36.6 °F 39.9 °F 92% 29.73 in 10.0 mi SE 9.2 mph - 0.00 in Rain Light Rain
9:53 PM 42.1 °F 35.7 °F 39.9 °F 92% 29.73 in 10.0 mi SE 11.5 mph - 0.00 in   Overcast
10:12 PM 43.0 °F 36.0 °F 41.0 °F 93% 29.72 in 10.0 mi SE 13.8 mph - 0.00 in Rain Light Rain
10:31 PM 43.0 °F 36.0 °F 41.0 °F 93% 29.73 in 10.0 mi SE 13.8 mph - 0.00 in   Overcast
10:53 PM 43.0 °F 35.7 °F 41.0 °F 93% 29.73 in 10.0 mi SE 15.0 mph - 0.00 in   Overcast
11:53 PM 44.1 °F 37.4 °F 41.0 °F 89% 29.73 in 10.0 mi SE 13.8 mph 24.2 mph 0.02 in   Overcast